User: anonymous   Login
Location: Brno
(49.2000°N, 16.6330°E)
Time: 04:53:09
(UTC+02:00)
Language:

Cosmos 332 Rocket - Orbit

View from above orbital plane
View from above orbital plane
View from above satellite
View from above satellite

Ground track
Ground track

The orbit data is extracted from the following two-line orbital elements,

1 04370U 70028B   16209.86188977  .00000071  00000-0  21194-4 0  9992
2 04370  74.0407 347.7642 0015980 344.8920  15.1766 14.59775462964650
Epoch (UTC): 27 July 2016 20:41:07
Eccentricity: 0.0015980
inclination: 74.0407°
perigee height: 682 km
apogee height: 705 km
right ascension of ascending node: 347.7642°
argument of perigee: 344.8920°
revolutions per day: 14.59775462
mean anomaly at epoch: 15.1766°
orbit number at epoch: 96465

The dashed part of the orbit path shows where the satellite is in the earth's shadow,  

DLR